Jerome, ID

9:30 PM MDT on October 20, 2017 (GMT -0600)
Jerome County

Weather History for KJER - November, 2012

Change the Weather History Date:

Friday, November 9, 2012

  Actual Average Record
Temperature  
Mean Temperature 32 °F 40 °F  
Max Temperature 38 °F 49 °F 70 °F (1954)
Min Temperature 25 °F 30 °F 14 °F (1950)
Degree Days  
Heating Degree Days 33 25  
Month to date heating degree days 149 213  
Since 1 July heating degree days 663 912  
Cooling Degree Days 0 0  
Month to date cooling degree days 0 0  
Year to date cooling degree days 750 510  
Moisture  
Dew Point 29 °F    
Average Humidity 80    
Maximum Humidity 100    
Minimum Humidity 59    
Precipitation  
Precipitation T in 0.03 in 0.37 in (1970)
Month to date precipitation 0.03 0.28  
Year to date precipitation 7.61 8.38  
Sea Level Pressure  
Sea Level Pressure 29.71 in    
Wind  
Wind Speed 9 mph (WSW)    
Max Wind Speed 16 mph    
Max Gust Speed 20 mph    
Visibility 8 miles    
Events Fog    
T = Trace of Precipitation, MM = Missing Value Source: NWS Daily Summary

Daily Weather History Graph

Daily Weather History Graph

Search for Another Location

Airport or City:

Trip Planner

Search our weather history database for the weather conditions in past years. The results will help you decide how hot, cold, wet, or windy it might be!

Date:

Astronomy

Nov. 09, 2012 Rise Set
Actual Time 7:22 AM MST 5:20 PM MST
Civil Twilight 6:52 AM MST 5:50 PM MST
Nautical Twilight 6:18 AM MST 6:24 PM MST
Astronomical Twilight 5:45 AM MST 6:57 PM MST
Moon 2:19 AM MST (11/9) 2:41 PM MST (11/9)
Length of Visible Light 10h 57m
Length of Day
9h 57m
Waning Crescent, 22% of the Moon is Illuminated
Nov 9
Waning Crescent
Nov 13
New
Nov 20
First Quarter
Nov 28
Full
Dec 6
Last Quarter

Hourly Weather History & Observations

Time (MST) Temp. Windchill Dew Point Humidity Pressure Visibility Wind Dir Wind Speed Gust Speed Precip Events Conditions
12:53 AM 36.0 °F 31.1 °F 33.1 °F 89% 29.64 in 10.0 mi SSE 5.8 mph - N/A   Overcast
1:53 AM 37.0 °F 31.6 °F 32.0 °F 82% 29.62 in 10.0 mi SW 6.9 mph - N/A   Overcast
2:53 AM 35.1 °F 27.4 °F 32.0 °F 89% 29.65 in 10.0 mi SW 10.4 mph - N/A   Overcast
3:53 AM 35.1 °F 30.1 °F 32.0 °F 89% 29.65 in 10.0 mi SSW 5.8 mph - N/A   Overcast
4:12 AM 35.6 °F 31.7 °F 32.0 °F 87% 29.67 in 10.0 mi SSW 4.6 mph - 0.00 in   Overcast
4:41 AM 33.8 °F 27.7 °F 30.2 °F 87% 29.67 in 10.0 mi SW 6.9 mph - 0.00 in   Overcast
4:53 AM 34.0 °F 27.2 °F 30.9 °F 89% 29.69 in 10.0 mi SSW 8.1 mph - 0.00 in   Overcast
5:49 AM 33.8 °F 25.8 °F 30.2 °F 87% 29.69 in 10.0 mi WSW 10.4 mph - N/A   Overcast
5:53 AM 34.0 °F 28.0 °F 30.9 °F 89% 29.70 in 10.0 mi WSW 6.9 mph - N/A   Overcast
5:55 AM 33.8 °F 27.0 °F 30.2 °F 87% 29.69 in 10.0 mi West 8.1 mph - N/A   Overcast
6:36 AM 32.0 °F 25.6 °F 30.2 °F 93% 29.69 in 7.0 mi West 6.9 mph - N/A   Overcast
6:53 AM 32.0 °F 24.8 °F 30.9 °F 96% 29.70 in 6.0 mi WSW 8.1 mph - N/A   Overcast
7:12 AM 30.2 °F 24.3 °F 30.2 °F 100% 29.69 in 4.0 mi WSW 5.8 mph - N/A   Overcast
7:31 AM 32.0 °F 23.0 °F 30.2 °F 93% 29.70 in 1.8 mi SW 11.5 mph - N/A   Overcast
7:37 AM 32.0 °F 23.6 °F 30.2 °F 93% 29.70 in 0.8 mi SW 10.4 mph - N/A   Mist
7:49 AM 32.0 °F 24.8 °F 30.2 °F 93% 29.71 in 0.2 mi WSW 8.1 mph - N/A Fog Fog
7:53 AM 32.0 °F 25.6 °F 30.9 °F 96% 29.74 in 0.5 mi WSW 6.9 mph - N/A Fog Fog
8:00 AM 32.0 °F 24.8 °F 30.2 °F 93% 29.71 in 2.0 mi SW 8.1 mph - N/A   Overcast
8:08 AM 30.2 °F 20.8 °F 30.2 °F 100% 29.71 in 7.0 mi WSW 11.5 mph - N/A   Overcast
8:53 AM 30.9 °F 22.2 °F 30.0 °F 96% 29.75 in 10.0 mi West 10.4 mph - N/A   Overcast
9:53 AM 32.0 °F 24.2 °F 30.0 °F 92% 29.78 in 10.0 mi SW 9.2 mph - 0.00 in   Overcast
10:53 AM 32.0 °F 25.6 °F 30.9 °F 96% 29.78 in 10.0 mi SW 6.9 mph - N/A   Overcast
11:02 AM 33.8 °F 27.0 °F 30.2 °F 87% 29.74 in 10.0 mi WSW 8.1 mph - N/A   Overcast
11:53 AM 35.1 °F 27.4 °F 30.0 °F 82% 29.76 in 10.0 mi WSW 10.4 mph - N/A   Overcast
12:23 PM 37.4 °F 30.8 °F 30.2 °F 75% 29.72 in 10.0 mi WSW 9.2 mph - N/A   Mostly Cloudy
12:36 PM 37.4 °F 30.8 °F 28.4 °F 70% 29.71 in 10.0 mi WSW 9.2 mph - N/A   Scattered Clouds
12:53 PM 36.0 °F 29.0 °F 28.0 °F 73% 29.75 in 10.0 mi WSW 9.2 mph - N/A   Scattered Clouds
1:53 PM 37.9 °F 29.2 °F 27.0 °F 65% 29.70 in 10.0 mi WSW 15.0 mph 19.6 mph N/A   Scattered Clouds
2:05 PM 37.4 °F 28.9 °F 26.6 °F 65% 29.67 in 10.0 mi West 13.8 mph - N/A   Mostly Cloudy
2:12 PM 37.4 °F 28.9 °F 26.6 °F 65% 29.67 in 10.0 mi West 13.8 mph - N/A   Scattered Clouds
2:53 PM 37.0 °F 29.3 °F 26.1 °F 65% 29.71 in 10.0 mi WSW 11.5 mph - N/A   Clear
3:53 PM 37.0 °F 28.5 °F 25.0 °F 62% 29.71 in 10.0 mi WSW 13.8 mph 19.6 mph N/A   Partly Cloudy
4:53 PM 34.0 °F 25.0 °F 25.0 °F 70% 29.73 in 10.0 mi WSW 12.7 mph - N/A   Partly Cloudy
5:53 PM 32.0 °F 24.2 °F 24.1 °F 73% 29.75 in 10.0 mi WSW 9.2 mph - N/A   Scattered Clouds
6:53 PM 30.0 °F 21.7 °F 23.0 °F 75% 29.77 in 10.0 mi SW 9.2 mph - N/A   Clear
7:53 PM 28.9 °F 19.8 °F 23.0 °F 78% 29.76 in 10.0 mi WSW 10.4 mph - N/A   Clear
8:53 PM 28.0 °F 20.8 °F 24.1 °F 85% 29.78 in 10.0 mi SW 6.9 mph - N/A   Clear
9:53 PM 28.0 °F 19.3 °F 23.0 °F 81% 29.78 in 10.0 mi SW 9.2 mph - N/A   Clear
10:53 PM 27.0 °F 18.7 °F 21.9 °F 81% 29.78 in 10.0 mi SSW 8.1 mph - N/A   Clear
11:53 PM 25.0 °F 16.3 °F 21.0 °F 85% 29.78 in 10.0 mi SW 8.1 mph - N/A   Clear